Location: Unspecified
(0.0000°N, 0.0000°E)
Time: 20:42:46
(UTC+01:00)

Cosmos 1892 Rocket - Visible Passes

Search period start: 03 December 2016 00:00
Search period end: 13 December 2016 00:00
Orbit: 606 x 634 km, 82.5° (Epoch: 02 December)

Date Brightness Start Highest point End Pass type
(mag) Time Alt. Az. Time Alt. Az. Time Alt. Az.
03 Dec 3.4 20:02:48 10° S 20:07:09 88° E 20:10:35 16° N visible
04 Dec 4.9 20:20:45 10° SSW 20:24:45 37° W 20:28:45 10° NNW visible
05 Dec 6.3 20:39:38 10° SW 20:42:21 16° W 20:45:05 10° NW visible
06 Dec 4.0 19:18:19 10° SSE 19:22:24 40° E 19:26:26 10° NNE visible
07 Dec 3.6 19:35:40 10° S 19:40:00 82° W 19:44:19 10° N visible
08 Dec 5.3 19:53:42 10° SSW 19:57:37 33° W 20:01:30 10° NNW visible
09 Dec 6.7 06:26:30 10° NE 06:28:47 14° E 06:31:04 10° ESE visible
09 Dec 6.5 20:12:48 10° WSW 20:15:12 15° W 20:17:37 10° NW visible
12 Dec 5.6 19:26:41 10° SSW 19:30:27 30° W 19:34:14 10° NNW visible
